Pineville, WV

4:37 PM EST on December 12, 2019 (GMT -0500)
Pineville

Weather History for KI16 - June, 2019

Change the Weather History Date:

Tuesday, June 11, 2019

  Actual Average (KBKW) Record (KBKW)
Temperature  
Mean Temperature 62 °F -  
Max Temperature 71 °F 75 °F 92 °F (1947)
Min Temperature 53 °F 54 °F 32 °F (1972)
Degree Days  
Heating Degree Days 3    
Growing Degree Days 12 (Base 50)    
Moisture  
Dew Point 50 °F    
Average Humidity 70    
Maximum Humidity 94    
Minimum Humidity 32    
Precipitation  
Precipitation 0.00 in - - ()
Sea Level Pressure  
Sea Level Pressure 30.22 in    
Wind  
Wind Speed - (North)    
Max Wind Speed -    
Max Gust Speed -    
Visibility 10 miles    
Events      
Averages and records for this station are not official NWS values.
T = Trace of Precipitation, MM = Missing Value Source: NWS Daily Summary

Daily Weather History Graph

Daily Weather History Graph

Search for Another Location

Airport or City:

Astronomy

Jun. 11, 2019 Rise Set
Actual Time 6:04 AM EDT 8:47 PM EDT
Civil Twilight 5:33 AM EDT 9:18 PM EDT
Nautical Twilight 4:54 AM EDT 9:57 PM EDT
Astronomical Twilight 4:10 AM EDT 10:41 PM EDT
Moon 2:53 PM EDT (6/11) 2:38 AM EDT (6/11)
Length of Visible Light 15h 45m
Length of Day
14h 43m
Waxing Gibbous, 66% of the Moon is Illuminated
Jun 11
Waxing Gibbous
Jun 17
Full
Jun 25
Last Quarter
Jul 2
New
Jul 9
First Quarter

Hourly Weather History & Observations

Time (EDT) Temp. Dew Point Humidity Pressure Visibility Wind Dir Wind Speed Gust Speed Precip Events Conditions
12:15 AM 60.3 °F 58.3 °F 93% 30.16 in 10.0 mi North - - N/A   Mostly Cloudy
12:35 AM 61.2 °F 57.7 °F 88% 30.17 in 10.0 mi North - - N/A   Overcast
12:55 AM 61.3 °F 56.3 °F 83% 30.18 in 10.0 mi North - - N/A   Mostly Cloudy
1:15 AM 60.8 °F 55.4 °F 82% 30.18 in 10.0 mi North - - N/A   Mostly Cloudy
1:35 AM 60.1 °F 55.2 °F 84% 30.18 in 10.0 mi North - - N/A   Overcast
1:55 AM 60.1 °F 55.0 °F 83% 30.18 in 10.0 mi North - - N/A   Overcast
2:15 AM 59.5 °F 55.2 °F 86% 30.18 in 10.0 mi North - - N/A   Overcast
2:35 AM 59.2 °F 54.9 °F 86% 30.18 in 10.0 mi North - - N/A   Overcast
2:55 AM 58.8 °F 55.0 °F 87% 30.19 in 10.0 mi North - - N/A   Overcast
3:15 AM 58.6 °F 54.5 °F 86% 30.19 in 10.0 mi North - - N/A   Overcast
3:35 AM 57.6 °F 54.7 °F 90% 30.19 in 10.0 mi North - - N/A   Overcast
3:55 AM 57.4 °F 54.3 °F 90% 30.19 in 10.0 mi North - - N/A   Overcast
4:15 AM 56.8 °F 54.3 °F 91% 30.20 in 10.0 mi North - - N/A   Overcast
4:35 AM 56.5 °F 54.0 °F 91% 30.20 in 10.0 mi North - - N/A   Overcast
4:55 AM 56.3 °F 53.6 °F 91% 30.20 in 10.0 mi North - - N/A   Overcast
5:15 AM 55.9 °F 53.6 °F 92% 30.20 in 10.0 mi North - - N/A   Overcast
5:35 AM 55.4 °F 53.1 °F 92% 30.21 in 10.0 mi North - - N/A   Overcast
5:55 AM 55.6 °F 53.2 °F 92% 30.21 in 10.0 mi North - - N/A   Overcast
6:15 AM 55.8 °F 53.6 °F 92% 30.21 in 10.0 mi North - - N/A   Overcast
6:35 AM 55.4 °F 52.9 °F 91% 30.22 in 10.0 mi North - - N/A   Mostly Cloudy
6:55 AM 55.0 °F 52.2 °F 90% 30.23 in 10.0 mi North - - N/A   Mostly Cloudy
7:15 AM 55.6 °F 51.1 °F 85% 30.23 in 10.0 mi North - - N/A   Mostly Cloudy
7:35 AM 55.4 °F 51.3 °F 86% 30.23 in 10.0 mi North - - N/A   Mostly Cloudy
7:55 AM 55.0 °F 51.1 °F 86% 30.24 in 10.0 mi North - - N/A   Scattered Clouds
8:15 AM 56.8 °F 47.7 °F 71% 30.24 in 10.0 mi North - - N/A   Scattered Clouds
8:35 AM 57.7 °F 47.3 °F 68% 30.25 in 10.0 mi North - - N/A   Clear
8:55 AM 59.2 °F 47.5 °F 65% 30.26 in 10.0 mi North - - N/A   Scattered Clouds
9:15 AM 60.1 °F 48.2 °F 65% 30.26 in 10.0 mi North - - N/A   Scattered Clouds
9:35 AM 60.6 °F 47.1 °F 61% 30.26 in 10.0 mi North - - N/A   Clear
9:55 AM 61.7 °F 47.7 °F 60% 30.26 in 10.0 mi North - - N/A   Clear
10:15 AM 63.0 °F 48.9 °F 60% 30.26 in 10.0 mi North - - N/A   Clear
10:55 AM 64.6 °F 48.4 °F 56% 30.26 in 10.0 mi North - - N/A   Clear
11:15 AM 65.3 °F 47.1 °F 52% 30.26 in 10.0 mi North - - N/A   Clear
11:35 AM 66.4 °F 45.5 °F 47% 30.26 in 10.0 mi North - - N/A   Clear
11:55 AM 67.5 °F 47.1 °F 48% 30.26 in 10.0 mi North - - N/A   Clear
12:15 PM 68.0 °F 46.2 °F 46% 30.26 in 10.0 mi North - - N/A   Clear
12:35 PM 68.0 °F 42.8 °F 40% 30.26 in 10.0 mi North - - N/A   Clear
12:55 PM 69.4 °F 43.0 °F 38% 30.25 in 10.0 mi North - - N/A   Clear
1:15 PM 70.3 °F 42.1 °F 36% 30.25 in 10.0 mi North - - N/A   Clear
1:35 PM 70.3 °F 41.0 °F 34% 30.25 in 10.0 mi North - - N/A   Clear
1:55 PM 70.9 °F 41.0 °F 34% 30.25 in 10.0 mi North - - N/A   Clear
2:15 PM 70.9 °F 40.5 °F 33% 30.24 in 10.0 mi North - - N/A   Clear
2:35 PM 71.8 °F 40.1 °F 32% 30.24 in 10.0 mi North - - N/A   Clear
2:55 PM 70.3 °F 41.2 °F 35% 30.24 in 10.0 mi North - - N/A   Clear
3:15 PM 69.6 °F 44.4 °F 40% 30.23 in 10.0 mi North - - N/A   Unknown
3:35 PM 70.9 °F 43.3 °F 37% 30.22 in 10.0 mi North - - N/A   Unknown
3:55 PM 69.4 °F 43.2 °F 39% 30.21 in 10.0 mi North - - N/A   Unknown
4:15 PM 69.8 °F 45.9 °F 42% 30.22 in 10.0 mi North - - N/A   Unknown
4:35 PM 70.3 °F 44.2 °F 39% 30.22 in 10.0 mi North - - N/A   Clear
4:55 PM 69.4 °F 48.0 °F 46% 30.22 in 10.0 mi North - - N/A   Clear
5:15 PM 70.2 °F 44.4 °F 40% 30.21 in 10.0 mi North - - N/A   Clear
5:35 PM 71.1 °F 42.6 °F 36% 30.20 in 10.0 mi North - - N/A   Clear
5:55 PM 66.7 °F 50.9 °F 57% 30.20 in 10.0 mi North - - N/A   Clear
6:15 PM 65.8 °F 52.7 °F 62% 30.19 in 10.0 mi North - - N/A   Clear
6:35 PM 65.3 °F 54.0 °F 67% 30.19 in 10.0 mi North - - N/A   Clear
6:55 PM 64.9 °F 55.8 °F 72% 30.20 in 10.0 mi North - - N/A   Clear
7:15 PM 64.9 °F 55.6 °F 72% 30.20 in 10.0 mi North - - N/A   Clear
7:35 PM 64.2 °F 55.9 °F 74% 30.20 in 10.0 mi North - - N/A   Clear
7:55 PM 62.4 °F 54.5 °F 75% 30.20 in 10.0 mi North - - N/A   Clear
8:15 PM 60.3 °F 53.4 °F 78% 30.20 in 10.0 mi North - - N/A   Clear
8:35 PM 58.8 °F 54.0 °F 84% 30.20 in 10.0 mi North - - N/A   Clear
8:55 PM 57.4 °F 53.1 °F 85% 30.21 in 10.0 mi North - - N/A   Clear
9:15 PM 56.5 °F 53.1 °F 88% 30.21 in 10.0 mi North - - N/A   Clear
9:35 PM 55.6 °F 52.7 °F 90% 30.21 in 10.0 mi North - - N/A   Clear
9:55 PM 54.7 °F 52.3 °F 92% 30.21 in 10.0 mi North - - N/A   Clear
10:15 PM 54.5 °F 52.2 °F 92% 30.21 in 10.0 mi North - - N/A   Clear
10:35 PM 54.5 °F 52.2 °F 92% 30.21 in 10.0 mi North - - N/A   Clear
10:55 PM 54.1 °F 52.2 °F 93% 30.22 in 10.0 mi North - - N/A   Clear
11:15 PM 53.8 °F 51.8 °F 93% 30.22 in 10.0 mi North - - N/A   Clear
11:35 PM 53.8 °F 52.0 °F 94% 30.22 in 10.0 mi North - - N/A   Clear
11:55 PM 53.6 °F 51.8 °F 94% 30.21 in 10.0 mi North - - N/A   Clear